User: anonymous   Login
Location: Hickory_CSC
(35.7330°N, 81.3330°W)
Time: 18:01:59
(UTC-05:00)
Language:

Cosmos 1356 Rocket - Orbit

View from above orbital plane
View from above orbital plane
View from above satellite
View from above satellite

Ground track
Ground track

The orbit data is extracted from the following two-line orbital elements,

1 13154U 82039B   18052.16840772  .00000194  00000-0  14143-4 0  9998
2 13154  81.1847 309.3354 0039727 199.6194 160.3499 14.98459458941024
Epoch (UTC): 21 February 2018 04:02:30
Eccentricity: 0.0039727
inclination: 81.1847°
perigee height: 544 km
apogee height: 599 km
right ascension of ascending node: 309.3354°
argument of perigee: 199.6194°
revolutions per day: 14.98459458
mean anomaly at epoch: 160.3499°
orbit number at epoch: 94102

The dashed part of the orbit path shows where the satellite is in the earth's shadow,  

DLR